Showing default

PROGRESS MS-29, 62030

Orbit data source: Space-Track

PROGRESS MS-29, 62030 is a payload satellite owned by RKKE (CIS) in LEO that was launched on Thu, 21 Nov 2024 UTC via a SOYUZ-2-1A launch vehicle from the Tyuratam Missile And Space Complex (TTMTR). Payload-class satellites include a variety of spacecraft equipped with specific instruments for various scientific and technological missions. These include communications satellites like Starlink; space stations such as the ISS; scientific satellites like the Hubble; Earth observation satellites from companies like Planet Labs, Umbra, and HawkEye 360; GPS; miniature CubeSats for education and research; and military/defense satellites.

Loading next visibility...
Identifier
62030, 2024-215A
Orbit
LEO
Last TLE update
14 hours ago
Origin
Manufacturer
TsSKB-Progress
Mission
Operational Civil Spaceship
Bus & Motor
7K-TGM, 11D428A
Mass
7,500 kg wet, 4,325 kg dry
Launch date (UTC)
2024-11-21 (7 months ago)
Launch vehicle
SOYUZ-2-1A
Launch site
Tyuratam Missile And Space Complex (TTMTR)
Object type
Payload
Rocket body
Debris
Shape & HBR
Cyl + Sphere + Cone + 2 Pan, 7.9 m
Radar Cross Section
19.615 m², Medium (>0.1 m² and < 1m²)

Expand to show TLE details & history

TLE from 14 hours ago
0 PROGRESS MS-29
1 62030U 24215A   25181.80067940  .00004863  00000-0  92136-4 0  9992
2 62030  51.6345 239.6041 0002317 313.2634  46.8161 15.50309575 34549
Epoch: 2025-06-30T19:12Z
TLE epoch observation values (Epoch: 2025-06-30T19:12:58.7Z)
Latitude
-0.00004°
Longitude
32.25421°
Altitude
415.485 km
Speed
7.664 km/s
True Right ascension
15h 58m 24s
True Declination
0° 00' 00"
Sunlit
Object was in full shadow at epoch
Visualization orbit readout
Latitude
-48.88421°
Longitude
-34.96557°
Altitude
431.054 km
Speed
7.654 km/s
Apparent Right ascension
09h 54m 21s
Apparent Declination
-46° 40' 28"
Sunlit
Object is in daylight
Visualization observer readout
Local Sidereal Time
20:27:37
Azimuth
239.583° WSW
Elevation
-72.905°
Doppler factor
1
Orbital elements
Apogee altitude
417.905 km
Perigee altitude
414.756 km
Semi-major axis
6,794.467 km
Eccentricity
0.00023
Inclination
51.6345°
RAAN
239.6041°
Arg. of periapsis
313.2634°
True anomaly
Unknown
Mean anomaly
46.8161°
Eccentric anomaly
Unknown
Mean motion
3.87534 °/min
Orbital period
92.9 mins
BSTAR
0.000092136
Loading maneuver chart data...
Loading SW <> Apogee altitude chart data...
Loading historical data...
Loading historical data...
Loading historical data...
Loading historical data...
Loading historical data...
Loading historical data...
Loading historical data...
Other satellites on launch #215 in the year 2024 (2024-11-21 UTC)

PROGRESS MS-29 Visibility forecast

Observer location: undefined°, undefined°

Span
Click to sort rows by Start time (UTC) header in descending order
Start Az.
Max El. time (UTC)
Max El. Az.
Max El.
End time (UTC)
End Az.
4 mins2025-07-01 12:43:26.495Z336.209° NNW2025-07-01 12:44:26.495Z8.59° NNE32.906°2025-07-01 12:47:26.495Z101.515° ESE
5 mins2025-07-02 07:01:26.495Z262.834° W2025-07-02 07:03:26.495Z338.628° N35.538°2025-07-02 07:06:26.495Z42.758° NE
|